Location: Novokuznetsk
(53.7500°N, 87.1000°E)
Time: 02:22:35
(UTC+06:00)

ISS - Visible Passes

Search period start: 21 July 2018 00:00
Search period end: 31 July 2018 00:00
Orbit: 402 x 408 km, 51.6° (Epoch: 20 July)

Date Brightness Start Highest point End Pass type
(mag) Time Alt. Az. Time Alt. Az. Time Alt. Az.
21 Jul -3.9 00:46:37 10° W 00:49:52 58° S 00:53:07 10° ESE visible
21 Jul -3.0 02:23:08 10° W 02:26:02 29° SSW 02:28:56 10° SE visible
21 Jul -3.3 22:18:28 10° SW 22:21:32 37° SSE 22:24:37 10° E visible
21 Jul -3.9 23:54:32 10° W 23:57:47 60° S 00:01:02 10° E visible
22 Jul -3.4 01:30:56 10° W 01:34:02 38° SSW 01:37:07 10° SE visible
22 Jul -1.9 03:08:23 10° WSW 03:09:53 13° SW 03:11:23 10° S visible
22 Jul -2.9 21:26:41 10° SW 21:29:32 27° SSE 21:32:23 10° E visible
22 Jul -3.8 23:02:27 10° WSW 23:05:41 57° S 23:08:56 10° E visible
23 Jul -3.7 00:38:48 10° W 00:41:59 48° SSW 00:43:27 26° SE visible
23 Jul -1.5 02:15:37 10° WSW 02:15:53 11° WSW 02:15:53 11° WSW visible
23 Jul -3.7 22:10:24 10° WSW 22:13:36 50° SSE 22:16:48 10° E visible
23 Jul -3.8 23:46:40 10° W 23:49:54 56° S 23:51:20 29° ESE visible
24 Jul -1.6 01:23:14 10° W 01:23:55 14° WSW 01:23:55 14° WSW visible
24 Jul -3.4 21:18:25 10° SW 21:21:31 40° SSE 21:24:38 10° E visible
24 Jul -3.9 22:54:32 10° W 22:57:47 60° S 23:00:15 16° ESE visible
25 Jul -2.5 00:30:59 10° W 00:32:51 26° WSW 00:32:51 26° WSW visible
25 Jul -3.8 22:02:25 10° WSW 22:05:39 59° S 22:08:54 10° E visible
25 Jul -3.5 23:38:47 10° W 23:41:56 44° SSW 23:42:02 44° S visible
26 Jul -3.7 21:10:19 10° WSW 21:13:31 53° S 21:16:44 10° E visible
26 Jul -3.7 22:46:36 10° W 22:49:49 53° S 22:51:18 27° SE visible
27 Jul -1.5 00:23:15 10° W 00:23:55 14° WSW 00:23:55 14° WSW visible
27 Jul -3.8 21:54:26 10° W 21:57:40 59° S 22:00:39 12° ESE visible
27 Jul -2.7 23:30:54 10° W 23:33:16 29° SW 23:33:16 29° SW visible
28 Jul -3.7 21:02:16 10° WSW 21:05:31 60° S 21:08:45 10° E visible
28 Jul -3.3 22:38:39 10° W 22:41:47 41° SSW 22:42:38 33° SSE visible
29 Jul -3.6 21:46:26 10° W 21:49:38 50° SSW 21:52:02 16° ESE visible
29 Jul -1.9 23:23:10 10° W 23:24:40 18° WSW 23:24:40 18° WSW visible
30 Jul -3.7 20:54:13 10° W 20:57:27 57° S 21:00:41 10° ESE visible
30 Jul -2.7 22:30:45 10° W 22:33:36 28° SSW 22:34:05 27° S visible
